Wind_Speed
18 18 19 20 20 19 18 21 20 15 13 14 15 15 14 11 6 6 8 8 6 6 6 6 6 8 10 11 12 12 13 13 12 12 12 11 11 11 11 11 11 10 10 9 8 7 7 6 5
21 21 22 22 22 20 20 23 21 16 14 15 15 14 12 8 4 5 8 9 8 8 7 6 7 9 11 13 13 14 14 14 14 13 12 12 12 11 11 11 10 10 9 9 7 6 6 5 5
25 24 24 24 22 20 22 24 23 17 15 15 16 14 11 7 4 4 8 10 8 8 7 7 8 10 12 13 14 14 15 15 14 13 12 12 12 11 11 10 10 9 9 8 7 6 5 5 5
29 28 27 25 21 20 24 26 25 19 17 17 18 15 12 6 3 5 8 10 8 7 7 8 9 10 12 13 14 15 15 15 14 13 13 12 12 11 10 10 9 8 8 7 6 6 5 4 4
31 31 30 25 20 21 25 27 26 21 18 18 19 16 12 7 4 5 8 10 9 8 8 9 10 11 12 13 14 14 14 14 14 13 13 12 11 10 10 9 8 7 7 6 6 5 5 4 5
32 34 32 27 23 24 27 28 28 23 20 20 21 17 14 9 5 6 9 11 9 9 9 10 11 12 12 13 13 14 14 14 14 13 13 12 11 10 9 8 7 7 6 5 5 5 5 5 5
32 35 34 30 27 26 28 29 29 25 23 23 24 22 16 11 7 5 7 10 10 10 10 11 12 12 13 13 13 14 14 15 14 14 13 12 11 10 9 8 7 6 6 5 5 5 5 5 5
33 35 35 33 30 28 30 32 30 28 26 26 25 24 20 13 10 6 6 9 11 11 10 10 11 11 12 13 13 14 15 15 15 14 13 12 11 10 10 8 7 7 6 6 6 6 5 6 6
33 35 33 32 32 30 33 34 32 31 28 26 26 24 23 18 12 7 7 9 11 11 10 9 10 11 12 13 13 14 14 15 15 14 13 12 12 11 10 9 8 7 7 7 6 7 7 7 7
33 33 30 32 35 35 35 35 34 33 31 27 25 25 24 18 12 8 7 9 12 12 10 10 10 11 12 13 13 14 15 15 15 14 13 13 12 11 10 9 9 8 8 8 8 8 8 8 9
32 32 31 33 36 37 38 37 36 35 33 29 26 24 24 19 15 11 9 11 12 12 11 10 10 11 12 13 14 14 15 15 15 15 14 13 13 12 11 10 9 9 9 9 9 10 10 10 11
31 31 33 33 36 39 40 39 38 36 33 31 27 24 21 19 16 10 9 11 12 12 12 12 11 11 12 13 14 15 15 16 15 15 15 14 14 12 12 11 10 10 10 10 11 11 12 13 14
30 31 33 34 36 39 41 42 40 38 35 33 29 24 21 17 14 12 12 13 13 13 13 13 13 13 13 14 14 15 16 16 15 15 15 15 15 14 13 12 12 12 12 12 12 13 14 14 16
28 30 32 34 36 39 42 43 43 40 38 35 30 25 22 18 17 16 14 14 14 15 15 14 14 15 15 15 15 16 16 16 16 16 16 16 15 15 14 14 14 14 14 14 14 15 16 17 18
26 28 29 31 33 36 40 44 44 40 39 37 34 29 25 23 21 18 17 16 17 17 18 17 16 16 16 16 16 16 16 17 17 18 17 17 17 17 16 16 16 16 16 17 17 18 18 19 21
23 24 23 23 26 29 35 40 40 40 39 39 37 34 31 28 26 24 21 20 20 20 21 21 19 19 19 17 17 17 17 17 17 17 17 17 18 19 18 17 17 18 19 19 19 20 20 20 22
20 20 18 18 19 22 28 32 33 36 38 39 38 36 34 33 31 29 27 24 24 23 22 21 20 20 21 20 18 17 17 17 18 18 18 19 19 19 18 18 18 19 19 20 20 21 22 22 23
15 16 17 17 16 18 21 23 25 32 36 38 39 38 36 35 33 31 30 28 28 26 24 23 22 22 21 21 20 19 19 19 19 19 19 20 20 19 19 18 19 19 20 20 21 22 22 23 24
15 16 17 17 16 16 16 18 22 27 32 36 37 37 37 36 35 34 31 29 28 28 26 24 24 24 24 23 21 21 20 20 20 20 20 19 19 18 19 18 19 19 21 22 23 24 24 25 26
17 17 16 16 15 14 14 15 20 25 30 33 35 36 36 36 35 34 32 31 29 29 29 26 25 26 25 25 23 23 22 20 20 19 18 18 19 19 19 20 20 21 23 24 25 25 25 26 26
17 17 17 16 16 16 15 17 20 23 27 29 31 33 34 34 34 33 31 31 32 31 28 27 25 25 26 26 24 23 22 21 20 20 19 20 20 20 21 22 21 22 23 24 24 26 27 26 25
18 17 16 17 17 20 19 19 22 23 25 27 29 30 31 31 32 32 32 32 33 32 30 29 27 26 26 27 26 25 24 22 20 20 21 22 23 23 23 23 22 23 23 23 24 24 24 25 26
17 17 18 18 18 20 21 21 22 24 24 25 27 28 28 29 30 31 31 32 32 32 32 29 28 27 28 27 26 26 25 24 21 20 22 23 24 24 23 23 23 23 23 24 24 24 25 26 28
18 18 20 20 20 20 19 22 23 22 23 23 24 26 27 28 30 32 32 34 33 31 32 31 28 25 25 26 25 24 23 21 20 20 22 23 23 23 24 25 24 24 24 24 25 26 26 28 30
19 20 20 21 21 20 19 22 23 22 23 23 24 25 27 28 28 30 31 32 32 32 30 29 26 24 24 24 24 23 22 21 21 21 22 23 23 24 25 26 26 26 26 26 26 28 29 31 32
19 21 21 20 20 19 22 24 25 24 24 23 22 24 27 27 28 28 28 29 30 30 28 28 27 24 23 24 24 24 24 24 24 24 24 25 26 27 26 27 28 29 29 30 31 32 33 34 35
20 20 20 20 19 18 21 23 25 26 26 24 23 23 24 26 26 26 27 28 29 29 28 27 26 26 25 25 25 25 26 25 26 27 27 28 29 29 29 30 31 32 33 34 34 35 36 37 38
19 19 19 19 19 19 20 21 22 24 25 26 25 25 24 25 26 27 26 27 28 28 28 27 26 26 26 25 25 25 26 27 28 29 30 31 31 31 32 33 34 36 37 37 38 39 39 40 41
17 19 19 20 19 19 20 21 22 23 23 24 25 25 26 26 25 25 25 26 26 26 26 25 25 26 26 26 27 27 28 29 30 31 32 33 34 35 36 37 38 39 39 39 40 41 41 41 42
17 17 18 19 18 18 19 20 19 20 20 19 19 22 25 26 25 24 24 24 25 25 25 25 26 26 27 27 28 29 30 30 31 33 34 35 37 38 39 40 41 40 40 40 41 41 41 42 42
Wind_Direction
243 243 242 239 234 229 228 236 237 241 252 257 253 244 237 245 269 304 304 308 284 282 282 273 268 263 260 258 259 262 264 265 265 267 270 272 277 281 286 288 288 289 289 290 291 290 292 293 293
240 241 241 239 235 228 227 235 238 242 258 265 257 238 233 246 272 289 288 290 284 279 275 270 269 266 263 262 262 264 265 265 265 266 267 269 273 276 281 283 283 284 285 285 285 287 291 292 293
238 239 240 240 236 229 228 236 239 245 259 264 255 236 235 230 247 278 281 276 275 272 270 272 272 268 263 262 263 265 266 265 263 263 264 266 269 272 275 277 277 278 278 278 280 284 286 289 294
236 237 239 240 237 230 230 237 242 249 261 270 258 246 239 222 250 274 274 270 270 271 270 272 273 271 267 263 264 266 265 264 261 260 260 262 265 267 269 271 272 271 271 272 275 278 282 287 295
237 237 238 238 235 231 232 236 241 247 259 269 259 250 242 231 250 271 270 268 268 273 274 274 275 272 270 267 266 265 262 258 256 256 256 257 259 261 263 264 264 264 265 266 269 275 279 284 290
239 238 237 235 232 229 231 234 239 246 255 260 257 246 244 227 243 268 271 272 268 270 273 272 272 272 270 267 264 261 257 254 252 252 251 252 254 256 257 257 258 260 259 260 264 268 272 279 283
242 240 236 232 229 228 229 233 238 242 252 258 259 254 243 237 233 255 266 272 273 270 268 269 268 268 267 263 260 257 253 251 249 248 245 247 249 252 253 253 254 253 252 255 259 262 269 276 282
244 242 236 230 227 226 229 233 237 241 250 255 260 255 248 241 240 241 257 270 275 273 264 267 268 265 262 258 255 252 250 248 247 243 241 243 246 249 251 251 250 251 251 255 259 261 269 278 286
247 244 239 231 227 223 227 232 236 242 249 254 260 257 252 246 240 238 253 265 273 263 258 262 264 262 257 253 251 249 247 245 243 240 239 241 244 248 249 248 250 253 256 260 261 265 272 281 289
250 247 240 231 227 224 226 231 234 240 245 249 256 262 259 250 239 236 241 255 262 255 250 255 259 259 256 252 248 246 243 242 240 239 238 240 243 246 246 248 251 255 258 261 266 272 278 285 291
251 248 240 231 226 225 226 228 232 238 243 247 253 259 257 256 246 237 238 248 258 252 248 252 255 255 255 252 248 245 242 240 239 238 238 239 241 244 246 249 253 256 259 265 272 279 285 291 294
250 246 240 232 226 225 225 226 230 236 242 248 254 259 257 253 251 247 246 251 259 253 245 248 249 248 251 251 247 244 241 239 238 237 238 240 241 243 245 249 255 259 264 270 274 279 287 293 295
249 244 239 233 227 225 225 226 228 232 237 244 249 255 260 259 255 252 244 243 245 249 250 243 245 244 245 245 246 242 239 239 237 236 237 239 241 245 249 251 256 259 264 269 274 278 285 290 294
252 247 241 236 230 226 225 225 228 229 235 240 246 253 259 261 260 259 255 251 243 244 249 242 242 247 246 241 240 239 236 236 236 235 235 237 241 245 248 253 258 260 265 270 274 279 286 290 291
254 251 248 243 238 232 228 226 227 227 232 237 242 248 256 262 266 262 258 255 249 248 248 246 245 248 247 242 237 237 235 234 235 237 237 239 239 242 247 253 256 260 264 269 273 278 283 288 290
252 253 252 247 246 240 236 232 228 228 230 235 241 246 252 258 263 262 257 255 249 246 248 248 243 247 243 239 235 234 233 235 236 237 239 241 240 243 248 252 255 260 265 268 272 276 281 285 290
249 249 246 237 238 239 240 236 228 227 229 232 237 242 247 250 256 260 259 257 253 248 248 244 242 247 242 237 234 233 233 234 235 239 241 241 242 245 251 253 258 263 267 272 276 282 283 285 290
237 234 225 215 214 225 231 229 221 221 224 227 231 236 242 246 251 256 258 256 252 245 246 248 248 250 244 240 236 231 232 232 235 238 241 244 245 249 252 258 264 268 270 274 280 282 282 285 288
219 217 212 201 200 219 218 216 208 210 215 220 226 231 237 244 248 252 255 257 250 248 249 250 247 247 244 241 241 234 234 232 234 239 244 250 251 256 261 267 271 272 272 274 279 281 281 284 285
213 213 205 195 197 209 212 211 206 206 211 217 223 228 234 239 243 246 249 252 254 256 256 251 248 246 241 235 237 236 236 235 237 238 247 254 260 265 266 269 271 271 275 276 280 281 282 285 285
211 213 202 196 195 193 206 215 213 211 214 218 223 229 233 236 241 245 250 253 253 254 255 254 252 240 239 237 239 239 239 240 242 247 254 257 262 266 269 270 274 277 279 280 282 282 283 283 284
215 211 208 210 203 192 201 217 219 217 219 220 225 230 233 237 241 246 249 251 254 256 257 259 250 245 243 241 239 242 242 244 250 255 261 262 264 270 272 273 278 281 284 284 285 286 287 286 285
215 212 215 218 211 202 205 218 224 222 226 227 229 232 236 241 245 247 249 252 252 256 261 262 257 248 246 244 240 241 246 250 253 260 267 269 270 273 277 279 284 285 285 285 285 286 288 287 283
218 214 214 217 216 210 209 220 227 228 230 233 236 236 239 243 244 247 250 253 254 259 263 267 263 257 250 246 247 250 251 258 265 266 271 275 277 281 287 290 287 288 289 288 287 287 289 287 285
217 214 216 218 221 222 221 228 231 234 234 236 239 242 246 246 246 248 250 252 255 260 265 270 269 262 256 256 262 264 263 270 276 274 281 284 285 289 292 291 291 294 295 295 293 290 290 289 287
213 213 215 218 220 225 228 235 237 239 242 244 246 247 246 249 249 252 253 254 257 262 266 268 270 270 269 267 268 272 275 280 284 286 288 290 291 293 295 294 293 295 296 295 293 292 290 289 287
209 211 215 221 222 229 230 233 240 241 247 253 255 254 250 248 252 254 253 253 256 259 263 265 267 270 272 272 274 276 278 280 283 287 288 288 290 292 293 292 293 294 293 293 292 291 291 288 287
210 208 214 221 226 234 237 238 244 249 252 255 258 257 253 249 250 251 252 252 253 257 262 262 264 269 271 273 276 277 277 279 281 283 285 286 288 288 289 290 291 291 291 291 291 291 291 290 289
210 211 217 221 227 236 245 251 251 258 258 258 257 254 251 248 247 247 249 252 255 257 260 264 265 268 270 272 274 275 276 278 279 280 283 285 287 288 290 290 291 291 291 291 290 291 291 291 291
212 216 220 222 227 240 252 259 261 268 272 266 261 251 248 245 245 248 251 253 255 258 260 262 264 266 267 269 271 273 275 277 279 281 283 285 286 288 289 290 291 291 292 292 292 293 293 293 292
Height
5888 5888 5889 5890 5892 5892 5892 5892 5892 5893 5893 5893 5892 5893 5893 5893 5895 5899 5899 5900 5901 5901 5902 5902 5903 5903 5904 5905 5906 5906 5907 5907 5907 5907 5907 5907 5906 5906 5906 5906 5905 5904 5904 5903 5902 5902 5901 5900 5900
5884 5885 5886 5887 5888 5889 5890 5889 5890 5891 5891 5890 5889 5889 5890 5890 5892 5895 5896 5898 5899 5900 5900 5900 5901 5902 5902 5903 5904 5905 5905 5905 5905 5905 5905 5905 5905 5905 5905 5904 5904 5903 5903 5902 5901 5900 5900 5899 5899
5880 5881 5882 5883 5884 5887 5887 5886 5887 5888 5888 5886 5885 5885 5887 5889 5890 5892 5895 5896 5897 5898 5898 5898 5899 5899 5900 5901 5902 5903 5903 5903 5904 5904 5904 5904 5903 5903 5903 5903 5903 5902 5902 5901 5900 5900 5899 5899 5898
5875 5876 5878 5880 5882 5884 5883 5883 5884 5885 5884 5883 5882 5882 5883 5886 5888 5890 5893 5894 5895 5895 5896 5896 5897 5897 5898 5899 5900 5900 5901 5901 5902 5902 5902 5902 5902 5902 5902 5902 5901 5901 5901 5900 5899 5899 5898 5898 5897
5870 5871 5873 5876 5879 5880 5880 5880 5881 5882 5882 5881 5879 5879 5879 5881 5884 5887 5890 5891 5892 5893 5893 5894 5894 5895 5895 5896 5897 5898 5899 5899 5900 5900 5900 5900 5900 5900 5900 5900 5900 5900 5900 5899 5899 5898 5898 5897 5897
5865 5866 5868 5872 5875 5876 5875 5876 5877 5878 5878 5878 5876 5876 5876 5877 5881 5884 5886 5887 5888 5890 5891 5891 5892 5892 5893 5894 5894 5895 5896 5897 5897 5898 5898 5898 5898 5899 5899 5899 5899 5899 5899 5898 5898 5897 5897 5896 5896
5859 5860 5863 5867 5870 5871 5872 5872 5872 5873 5874 5875 5874 5873 5872 5873 5876 5880 5883 5884 5885 5887 5888 5889 5889 5890 5891 5891 5892 5893 5894 5894 5895 5895 5896 5896 5896 5897 5897 5897 5898 5898 5898 5897 5897 5896 5896 5895 5894
5851 5853 5856 5861 5865 5868 5867 5866 5867 5868 5869 5870 5870 5870 5869 5870 5873 5876 5878 5881 5883 5885 5886 5886 5887 5887 5888 5888 5889 5890 5891 5892 5892 5893 5893 5894 5894 5895 5895 5896 5896 5896 5896 5896 5896 5895 5894 5894 5893
5844 5847 5851 5856 5860 5863 5861 5861 5861 5862 5864 5865 5866 5866 5865 5866 5868 5872 5876 5879 5880 5882 5883 5883 5884 5885 5885 5886 5886 5887 5888 5889 5890 5890 5891 5891 5892 5893 5893 5894 5894 5894 5895 5895 5894 5894 5893 5892 5892
5837 5841 5846 5850 5853 5856 5855 5855 5856 5857 5859 5861 5862 5862 5863 5863 5865 5868 5872 5875 5877 5878 5879 5880 5881 5882 5882 5883 5884 5884 5885 5886 5887 5888 5888 5889 5890 5891 5891 5892 5892 5892 5893 5893 5892 5892 5891 5891 5890
5831 5834 5839 5841 5844 5847 5849 5850 5851 5852 5854 5857 5858 5859 5861 5861 5862 5865 5869 5872 5874 5875 5877 5877 5878 5879 5880 5880 5881 5881 5882 5883 5884 5885 5886 5887 5887 5888 5889 5889 5890 5890 5890 5891 5890 5890 5889 5889 5888
5824 5827 5830 5833 5836 5839 5842 5844 5846 5847 5850 5853 5854 5856 5858 5860 5861 5863 5867 5869 5871 5872 5874 5875 5875 5876 5877 5877 5878 5878 5879 5880 5881 5882 5884 5884 5885 5886 5886 5887 5887 5888 5888 5888 5888 5887 5887 5886 5885
5817 5820 5822 5825 5828 5831 5834 5837 5840 5843 5846 5848 5851 5853 5855 5858 5860 5862 5865 5866 5868 5869 5870 5872 5872 5872 5873 5874 5874 5875 5876 5877 5878 5880 5881 5881 5882 5883 5883 5884 5884 5885 5885 5885 5885 5884 5883 5882 5881
5812 5813 5815 5817 5820 5823 5827 5830 5834 5839 5841 5843 5847 5849 5852 5854 5857 5859 5861 5863 5864 5866 5867 5868 5869 5869 5869 5869 5871 5872 5873 5874 5875 5876 5877 5878 5878 5879 5879 5880 5881 5881 5881 5881 5881 5880 5879 5878 5877
5806 5807 5810 5813 5816 5818 5821 5824 5828 5834 5836 5839 5842 5845 5848 5850 5853 5854 5857 5859 5861 5863 5864 5865 5865 5865 5865 5866 5867 5868 5869 5870 5871 5872 5873 5874 5874 5875 5875 5876 5876 5876 5876 5876 5876 5876 5875 5874 5873
5801 5803 5806 5810 5811 5814 5816 5819 5825 5828 5832 5834 5837 5841 5844 5846 5847 5849 5852 5855 5857 5859 5860 5861 5862 5862 5861 5862 5863 5864 5865 5866 5867 5867 5868 5868 5869 5870 5870 5871 5872 5872 5872 5872 5872 5871 5871 5870 5868
5796 5798 5801 5804 5806 5808 5809 5812 5818 5822 5826 5829 5832 5835 5838 5840 5842 5844 5847 5848 5851 5852 5855 5856 5857 5857 5857 5858 5859 5860 5861 5862 5862 5862 5863 5863 5864 5865 5865 5866 5866 5866 5866 5866 5866 5866 5865 5864 5863
5792 5793 5795 5798 5800 5801 5802 5806 5811 5814 5819 5823 5827 5829 5832 5834 5836 5839 5841 5843 5844 5845 5848 5850 5851 5852 5852 5853 5855 5856 5857 5857 5857 5857 5857 5858 5859 5859 5860 5860 5861 5861 5861 5860 5860 5860 5859 5858 5857
5787 5789 5791 5794 5796 5797 5798 5801 5805 5808 5812 5816 5820 5824 5827 5829 5832 5834 5836 5837 5837 5838 5841 5842 5844 5844 5846 5848 5849 5850 5850 5851 5852 5852 5851 5852 5852 5853 5854 5854 5854 5855 5854 5854 5854 5854 5853 5852 5850
5783 5784 5787 5790 5792 5793 5796 5798 5800 5802 5806 5810 5815 5819 5822 5825 5827 5829 5831 5832 5834 5834 5835 5836 5837 5836 5838 5840 5842 5843 5844 5845 5846 5846 5846 5846 5847 5847 5847 5848 5848 5848 5848 5848 5848 5847 5846 5845 5844
5780 5782 5784 5786 5787 5790 5792 5794 5796 5799 5802 5806 5810 5813 5816 5819 5822 5824 5826 5828 5828 5828 5828 5828 5828 5829 5831 5834 5835 5837 5838 5839 5840 5841 5841 5841 5841 5842 5842 5842 5842 5842 5842 5842 5841 5841 5840 5839 5837
5776 5779 5781 5783 5784 5786 5789 5790 5792 5795 5799 5802 5805 5808 5811 5814 5817 5819 5821 5822 5822 5822 5823 5823 5821 5822 5823 5825 5827 5829 5831 5832 5833 5835 5836 5836 5836 5836 5836 5835 5835 5835 5835 5835 5834 5834 5832 5831 5830
5773 5775 5777 5779 5780 5783 5786 5787 5790 5792 5795 5798 5801 5804 5806 5809 5811 5814 5816 5817 5816 5817 5818 5817 5816 5815 5816 5819 5821 5822 5824 5826 5827 5829 5829 5830 5830 5830 5829 5828 5829 5829 5828 5828 5827 5827 5825 5824 5823
5769 5772 5774 5776 5778 5781 5783 5785 5786 5789 5791 5794 5796 5799 5801 5804 5805 5807 5810 5811 5811 5811 5813 5813 5811 5809 5810 5812 5814 5816 5817 5819 5820 5821 5823 5823 5823 5823 5823 5823 5823 5822 5822 5821 5820 5819 5817 5816 5814
5766 5769 5771 5774 5776 5779 5781 5781 5783 5784 5786 5789 5791 5794 5796 5798 5800 5801 5803 5805 5805 5806 5807 5808 5807 5807 5807 5808 5809 5810 5811 5813 5814 5814 5815 5815 5816 5816 5816 5816 5816 5815 5814 5813 5812 5811 5809 5807 5805
5762 5765 5769 5771 5773 5776 5777 5777 5779 5781 5782 5784 5786 5788 5791 5793 5795 5796 5797 5798 5800 5801 5802 5803 5803 5804 5804 5804 5805 5806 5807 5807 5808 5808 5809 5810 5810 5809 5809 5809 5808 5807 5806 5805 5803 5802 5800 5798 5795
5759 5762 5765 5768 5770 5771 5772 5774 5775 5777 5778 5780 5781 5783 5785 5787 5789 5790 5791 5793 5794 5796 5797 5798 5798 5799 5800 5800 5801 5802 5802 5802 5802 5803 5803 5803 5803 5802 5802 5801 5800 5799 5797 5796 5794 5792 5790 5787 5784
5757 5760 5762 5765 5767 5768 5770 5771 5772 5773 5774 5775 5776 5777 5779 5782 5784 5786 5787 5788 5789 5790 5791 5792 5793 5794 5795 5795 5796 5796 5797 5797 5797 5797 5797 5796 5795 5795 5794 5793 5791 5789 5787 5785 5783 5781 5778 5776 5773
5756 5758 5759 5761 5763 5765 5766 5769 5768 5768 5768 5768 5769 5771 5773 5776 5778 5780 5782 5783 5783 5784 5785 5786 5787 5788 5789 5789 5790 5790 5790 5790 5790 5790 5790 5789 5787 5786 5784 5782 5781 5779 5777 5775 5772 5770 5767 5764 5761
5753 5755 5757 5759 5761 5762 5763 5766 5763 5763 5763 5762 5763 5764 5766 5769 5772 5774 5776 5777 5778 5779 5780 5780 5781 5782 5783 5783 5783 5783 5783 5783 5782 5782 5781 5780 5778 5776 5775 5773 5771 5768 5766 5764 5761 5758 5755 5752 5749